Kezdőlap
METAR-TAF:

METAR-TAF

Repülőterek :

Fairmont Municipal Airport

Fairmont, Minnesota, Amerikai Egyesült Államok

földrajzi szélesség: 43-39N, földrajzi hosszúság: 094-25W, magasság: 354 m

Jelenlegi meteorológiai megfigyelések

A jelentés 1 órával és 12 perccel ezelõtt készült, 11:56 UTC
Északi szél 7 kt
Hőmérséklet -1°C
Páratartalom 74%
Légköri nyomás 1027 hPa
Látótávolság: 16.1 km
Borult 8000 lábon

METAR: KFRM 041156Z AUTO 35007KT 10SM OVC080 M01/M05 A3032 RMK AO2 SLP285 T10061050 10000 21011 50002 FZRANO

Idő: 07:08 (13:08 UTC)


TAF: hiányzik

Meteorológiai megfigyelések és előrejelzések több, mint 4000 repülőtéren (METAR és TAF jelentéseket).

A térképen piros és sárga pontok jelzik az elérhető meteorológiai állomásokat.

Mozgassa az egeret a pont fölött, hogy megjelenjen az állomás neve.

Azután kattintson az időjárási megfigyelések és előrejelzések megtekintéséhez.

A térkép megváltoztatása: kattintson a fekete keresztel jelölt zöld gombra ráközelítéshez, a vonallal jelölt zöld gombra távolításhoz, vagy a zöld nyilakra a szomszédos térképek eléréséhez.


METAR-TAF: